FW2020 Weather Reports


time (UTC)temp
C
wind
direction
speed
KPH
gust
KPH
rain 1hr
cm
rain 24hr
cm
rain mn
cm
humidity
%
barometer
mb
20260503025220 8 0.0 0.0 0.00 0.08 0.08 99 1011.7
20260503024222 8 0.0 0.0 0.00 0.08 0.08 97 1011.7
20260503023225 8 0.0 0.0 0.00 0.08 0.08 97 1011.9
20260503022248 8 0.0 0.0 0.00 0.08 0.08 97 1011.9
20260503021229 8 0.0 0.0 0.00 0.08 0.08 96 1011.9
20260503020233 8 0.0 0.0 0.00 0.08 0.08 97 1011.9
20260503015216 8 0.0 0.0 0.00 0.08 0.08 97 1011.9
20260503014219 8 0.0 0.0 0.00 0.08 0.08 97 1012.0
20260503013222 8 0.0 0.0 0.00 0.08 0.08 95 1012.2
20260503012218 8 0.0 0.0 0.00 0.08 0.08 94 1012.2
20260503011216 9 0.0 0.0 0.00 0.08 0.08 93 1012.2
20260503010230 9 0.0 0.0 0.00 0.08 0.08 93 1011.9
20260503005232 9 0.0 0.0 0.00 0.08 0.08 94 1011.9
20260503004216 9 0.0 0.0 0.00 0.08 0.08 94 1011.8
20260503003219 9 0.0 0.0 0.00 0.08 0.08 92 1011.7
20260503002222 10 0.0 0.0 0.00 0.08 0.08 92 1011.7
20260503001224 10 0.0 0.0 0.00 0.08 0.08 90 1011.7
20260503000226 10 0.0 0.0 0.00 0.08 0.08 91 1011.7
20260502235248 10 0.0 0.0 0.00 0.08 0.08 91 1011.7
20260502234231 10 0.0 0.0 0.00 0.08 0.08 89 1011.7
20260502233215 10 0.0 0.0 0.00 0.08 0.08 88 1011.7
20260502232218 10 0.0 0.0 0.00 0.08 0.08 88 1011.7
20260502231242 10 0.0 0.0 0.00 0.08 0.08 87 1011.7
20260502230224 10 113 3.2 3.2 0.00 0.08 0.08 87 1011.9
20260502225226 11 0.0 0.0 0.00 0.08 0.08 86 1011.8
20260502224243 11 0.0 0.0 0.00 0.08 0.08 86 1011.7
20260502223220 11 0.0 0.0 0.00 0.08 0.08 86 1011.7
20260502222215 11 238 3.2 4.8 0.00 0.08 0.08 85 1011.7
20260502221218 11 158 3.2 4.8 0.00 0.08 0.08 84 1011.7
20260502220220 11 113 3.2 4.8 0.00 0.08 0.08 84 1011.8
20260502215244 11 138 3.2 4.8 0.00 0.08 0.08 83 1011.7
20260502214226 11 180 1.6 3.2 0.00 0.08 0.08 83 1011.7
20260502213228 11 0.0 0.0 0.00 0.08 0.08 83 1011.7
20260502212231 11 90 3.2 3.2 0.00 0.08 0.08 82 1011.7
20260502211220 11 190 4.8 4.8 0.00 0.08 0.08 82 1011.5
20260502210218 11 165 3.2 4.8 0.00 0.08 0.08 82 1011.5
20260502205301 11 90 4.8 6.4 0.00 0.08 0.08 82 1011.7
20260502204223 -17 225 6.4 6.4 0.00 0.08 0.08 1011.7
20260502203225 11 68 8.0 9.7 0.00 0.08 0.08 81 1011.8
20260502202228 11 316 6.4 8.0 0.00 0.08 0.08 81 1011.8
20260502201230 12 6.4 6.4 0.00 0.08 0.08 80 1011.9
20260502200247 12 219 4.8 6.4 0.00 0.08 0.08 82 1012.0
20260502195217 11 124 6.4 9.7 0.00 0.08 0.08 83 1012.2
20260502194220 11 113 6.4 6.4 0.00 0.08 0.08 82 1012.2
20260502193256 11 138 4.8 6.4 0.03 0.08 0.08 83 1012.2
20260502192247 11 113 9.7 11.3 0.03 0.08 0.08 82 1012.2
20260502191227 11 270 9.7 9.7 0.03 0.08 0.08 84 1012.4
20260502190231 -17 258 8.0 9.7 0.03 0.08 0.08 1012.7
20260502185232 11 113 4.8 4.8 0.03 0.08 0.08 85 1012.7
20260502184216 11 60 6.4 9.7 0.03 0.08 0.08 85 1012.9
20260502183240 11 8.0 9.7 0.00 0.05 0.05 84 1012.9
20260502182221 11 6.4 6.4 0.03 0.05 0.05 85 1012.9
20260502181224 -17 158 4.8 4.8 0.03 0.05 0.05 1012.7
20260502180227 11 6.4 6.4 0.05 0.05 0.05 85 1013.0
20260502170226 -17 69 6.4 6.4 0.00 0.00 0.00 1013.0
20260502164218 12 270 3.2 4.8 0.00 0.00 0.00 82 1013.2
20260502163233 13 1.6 3.2 0.00 0.00 0.00 78 1013.2
20260502162217 13 68 1.6 3.2 0.00 0.00 0.00 76 1013.2
20260502161220 13 113 6.4 8.0 0.00 0.00 0.00 73 1013.2
20260502160242 14 183 6.4 8.0 0.00 0.00 0.00 73 1013.2
20260502152232 -17 203 3.2 3.2 0.00 0.00 0.00 1013.2
20260502151236 15 158 6.4 8.0 0.00 0.00 0.00 66 1013.5
20260502150219 16 113 0.0 1.6 0.00 0.00 0.00 64 1013.5
20260502130233 11 0.0 0.0 0.00 0.00 0.00 82 1014.4
20260502123223 10 3.2 3.2 0.00 0.00 0.00 85 1014.4
20260502122224 10 270 4.8 6.4 0.00 0.00 0.00 84 1014.4
20260502121226 10 203 3.2 3.2 0.00 0.00 0.00 84 1013.9
20260502120230 10 23 6.4 8.0 0.00 0.00 0.00 84 1013.9
20260502115231 10 332 3.2 4.8 0.00 0.00 0.00 85 1013.9
20260502114217 9 158 1.6 4.8 0.00 0.00 0.00 86 1013.7
20260502113218 8 77 3.2 3.2 0.00 0.00 0.00 87 1013.7
20260502112221 8 135 4.8 4.8 0.00 0.00 0.00 88 1013.7
20260502111224 8 0.0 0.0 0.00 0.00 0.00 88 1013.7
20260502110220 8 1.6 3.2 0.00 0.00 0.00 87 1013.7
20260502105217 -17 207 1.6 1.6 0.00 0.00 0.00 1013.5
20260502104232 -17 0.0 0.0 0.00 0.00 0.00 1013.4
20260502103216 7 175 3.2 3.2 0.00 0.00 0.00 88 1013.4
20260502102219 7 0.0 0.0 0.00 0.00 0.00 88 1013.4
20260502101222 7 0.0 0.0 0.00 0.00 0.00 88 1013.4
20260502100223 7 270 1.6 3.2 0.00 0.00 0.00 87 1013.2
20260502091219 7 0.0 0.0 0.00 0.00 0.00 86 1013.2
20260502090222 7 0.0 0.0 0.00 0.00 0.00 87 1013.0
20260502071231 7 0.0 0.0 0.00 0.00 0.00 78 1012.9
20260502070215 7 0.0 0.0 0.00 0.00 0.00 77 1012.9
20260502065238 8 158 1.6 1.6 0.00 0.00 0.00 76 1013.0
20260502064221 8 0.0 0.0 0.00 0.00 0.00 74 1013.2
20260502063223 8 135 4.8 4.8 0.00 0.00 0.00 73 1013.2
20260502062226 -17 152 8.0 9.7 0.00 0.00 0.00 1013.2
20260502061228 9 190 6.4 8.0 0.00 0.00 0.00 70 1013.4
20260502060230 9 205 6.4 8.0 0.00 0.00 0.00 70 1013.4
20260502055215 9 203 4.8 6.4 0.00 0.00 0.00 68 1013.4
20260502054239 9 270 1.6 1.6 0.00 0.00 0.00 68 1013.5
20260502053220 9 135 4.8 6.4 0.00 0.00 0.00 68 1013.5
20260502052222 9 270 3.2 4.8 0.00 0.00 0.00 69 1013.5
20260502051219 8 157 3.2 3.2 0.00 0.00 0.00 69 1013.4
20260502050256 -17 172 6.4 6.4 0.00 0.00 0.00 1013.4
20260502045230 9 283 1.6 4.8 0.00 0.00 0.00 70 1013.5
20260502044215 9 221 4.8 6.4 0.00 0.00 0.00 71 1013.5
20260502043217 9 146 6.4 6.4 0.00 0.00 0.00 72 1013.5
20260502042220 8 1.6 4.8 0.00 0.00 0.00 72 1013.5
20260502041222 9 180 3.2 3.2 0.00 0.00 0.00 72 1013.7
20260502040226 8 0.0 0.0 0.00 0.00 0.00 71 1013.7
20260502035222 8 270 3.2 3.2 0.00 0.00 0.00 71 1013.7
20260502034224 8 37 3.2 4.8 0.00 0.00 0.00 72 1013.7
20260502033227 8 270 4.8 4.8 0.00 0.00 0.00 72 1013.7
20260502032229 8 0.0 0.0 0.00 0.00 0.00 72 1013.7
20260502031232 8 293 1.6 3.2 0.00 0.00 0.00 72 1013.7
20260502030216 8 0.0 0.0 0.00 0.00 0.00 71 1013.5